Coolangatta, Australia

6:05 AM AEST on July 24, 2017 (GMT +1000)
Coolangatta

Weather History for YBCG - January, 2014

Change the Weather History Date:

Friday, January 3, 2014

  Actual Average Record
Temperature  
Mean Temperature 80 °F -  
Max Temperature 86 °F - - ()
Min Temperature 73 °F - - ()
Cooling Degree Days 14    
Growing Degree Days 30 (Base 50)    
Moisture  
Dew Point 71 °F    
Average Humidity 76    
Maximum Humidity 89    
Minimum Humidity 59    
Precipitation  
Precipitation 0.00 in - - ()
Sea Level Pressure  
Sea Level Pressure 29.63 in    
Wind  
Wind Speed 13 mph ()    
Max Wind Speed 22 mph    
Max Gust Speed -    
Visibility 6.2 miles    
Events      
T = Trace of Precipitation, MM = Missing Value Source: Averaged Metar Reports

Daily Weather History Graph

Daily Weather History Graph

Search for Another Location

Airport or City:

Trip Planner

Search our weather history database for the weather conditions in past years. The results will help you decide how hot, cold, wet, or windy it might be!

Date:

Astronomy

Jan. 03, 2014 Rise Set
Actual Time 4:53 AM AEST 6:46 PM AEST
Civil Twilight 4:27 AM AEST 7:13 PM AEST
Nautical Twilight 3:54 AM AEST 7:45 PM AEST
Astronomical Twilight 3:20 AM AEST 8:19 PM AEST
Moon 6:38 AM AEST (1/3) 8:08 PM AEST (1/3)
Length of Visible Light 14h 46m
Length of Day
13h 52m
Waxing Crescent, 4% of the Moon is Illuminated
Jan 3
Waxing Crescent
Jan 8
First Quarter
Jan 16
Full
Jan 24
Last Quarter
Jan 31
New

Hourly Weather History & Observations

Time (AEST) Temp. Heat Index Dew Point Humidity Pressure Visibility Wind Dir Wind Speed Gust Speed Precip Events Conditions
12:00 AM 74 °F - 69 °F 79% 29.76 in - NW 11.5 mph - -  
12:00 AM 75.2 °F - 68.0 °F 78% 29.74 in 6.2 mi NW 11.5 mph - N/A   Unknown
12:30 AM 75.2 °F - 68.0 °F 78% 29.74 in 6.2 mi NW 10.4 mph - N/A   Unknown
1:00 AM 75.2 °F - 68.0 °F 78% 29.68 in 6.2 mi NNW 13.8 mph - N/A   Unknown
1:30 AM 75.2 °F - 68.0 °F 78% 29.68 in 6.2 mi NW 10.4 mph - N/A   Unknown
2:00 AM 75.2 °F - 68.0 °F 78% 29.68 in 6.2 mi NNW 9.2 mph - N/A   Unknown
2:30 AM 75.2 °F - 68.0 °F 78% 29.68 in 6.2 mi NNW 10.4 mph - N/A   Unknown
3:00 AM 76 °F - 67 °F 68% 29.68 in - NNW 10.4 mph - -  
3:00 AM 75.2 °F - 68.0 °F 78% 29.65 in 6.2 mi NNW 10.4 mph - N/A   Unknown
3:30 AM 75.2 °F - 68.0 °F 78% 29.68 in 6.2 mi NNW 8.1 mph - N/A   Unknown
4:00 AM 75.2 °F - 68.0 °F 78% 29.68 in 6.2 mi NNW 6.9 mph - N/A   Unknown
4:30 AM 75.2 °F - 69.8 °F 83% 29.68 in 6.2 mi North 11.5 mph - N/A   Unknown
5:00 AM 75.2 °F - 71.6 °F 89% 29.68 in 6.2 mi North 12.7 mph - N/A   Unknown
5:30 AM 75.2 °F - 71.6 °F 89% 29.68 in 6.2 mi North 15.0 mph - N/A   Unknown
6:00 AM 75 °F - 71 °F 85% 29.70 in - North 10.4 mph - -  
6:00 AM 75.2 °F - 71.6 °F 89% 29.68 in 6.2 mi North 10.4 mph - N/A   Unknown
6:30 AM 77.0 °F - 71.6 °F 83% 29.71 in 6.2 mi North 11.5 mph - N/A   Unknown
7:00 AM 77.0 °F - 71.6 °F 83% 29.71 in 6.2 mi North 17.3 mph - N/A   Unknown
7:30 AM 77.0 °F - 71.6 °F 83% 29.71 in 6.2 mi North 15.0 mph - N/A   Unknown
8:00 AM 80.6 °F 84.6 °F 71.6 °F 74% 29.71 in 6.2 mi North 16.1 mph - N/A   Unknown
8:30 AM 80.6 °F 84.6 °F 71.6 °F 74% 29.71 in 6.2 mi North 16.1 mph - N/A   Unknown
9:00 AM 82 °F - 71 °F 61% 29.71 in - North 15.0 mph - -  
9:00 AM 82.4 °F 87.2 °F 71.6 °F 70% 29.71 in 6.2 mi North 15.0 mph - N/A   Scattered Clouds
9:30 AM 82.4 °F 87.2 °F 71.6 °F 70% 29.68 in 6.2 mi North 17.3 mph - N/A   Unknown
10:00 AM 82.4 °F 87.2 °F 71.6 °F 70% 29.68 in 6.2 mi North 17.3 mph - N/A   Unknown
10:30 AM 82.4 °F 87.2 °F 71.6 °F 70% 29.68 in 6.2 mi North 17.3 mph - N/A   Unknown
11:00 AM 82.4 °F 87.2 °F 71.6 °F 70% 29.65 in 6.2 mi North 18.4 mph - N/A   Unknown
11:30 AM 84.2 °F 90.9 °F 73.4 °F 70% 29.65 in 6.2 mi North 18.4 mph - N/A   Unknown
12:00 PM 85 °F - 73 °F 59% 29.66 in - North 17.3 mph - -  
12:00 PM 84.2 °F 90.9 °F 73.4 °F 70% 29.65 in 6.2 mi North 17.3 mph - N/A   Unknown
12:30 PM 84.2 °F 89.6 °F 71.6 °F 66% 29.62 in 6.2 mi North 16.1 mph - N/A   Unknown
1:00 PM 84.2 °F 89.6 °F 71.6 °F 66% 29.62 in 6.2 mi North 18.4 mph - N/A   Unknown
1:30 PM 86.0 °F 93.4 °F 73.4 °F 66% 29.62 in 6.2 mi North 18.4 mph - N/A   Unknown
2:00 PM 84.2 °F 90.9 °F 73.4 °F 70% 29.59 in 6.2 mi North 19.6 mph - N/A   Unknown
2:30 PM 84.2 °F 90.9 °F 73.4 °F 70% 29.59 in 6.2 mi North 16.1 mph - N/A   Unknown
3:00 PM 83 °F - 73 °F 65% 29.58 in - North 21.9 mph - -  
3:00 PM 82.4 °F 88.2 °F 73.4 °F 74% 29.56 in 6.2 mi North 21.9 mph - N/A   Unknown
3:30 PM 82.4 °F 88.2 °F 73.4 °F 74% 29.56 in 6.2 mi North 20.7 mph - N/A   Unknown
4:00 PM 82.4 °F 88.2 °F 73.4 °F 74% 29.56 in 6.2 mi North 21.9 mph - N/A   Unknown
4:30 PM 82.4 °F 88.2 °F 73.4 °F 74% 29.56 in 6.2 mi North 17.3 mph - N/A   Unknown
5:00 PM 80.6 °F 85.4 °F 73.4 °F 79% 29.53 in 6.2 mi North 20.7 mph - N/A   Unknown
5:30 PM 78.8 °F - 73.4 °F 83% 29.56 in 6.2 mi North 18.4 mph - N/A   Scattered Clouds
6:00 PM 80 °F - 73 °F 74% 29.57 in - North 18.4 mph - -  
6:00 PM 78.8 °F - 73.4 °F 83% 29.56 in 6.2 mi North 18.4 mph - N/A   Mostly Cloudy
6:30 PM 78.8 °F - 73.4 °F 83% 29.56 in 6.2 mi North 18.4 mph - N/A   Overcast
7:00 PM 78.8 °F - 73.4 °F 83% 29.56 in 6.2 mi North 18.4 mph - N/A   Scattered Clouds
7:30 PM 78.8 °F - 73.4 °F 83% 29.59 in 6.2 mi North 17.3 mph - N/A   Unknown
8:00 PM 78.8 °F - 73.4 °F 83% 29.56 in 6.2 mi North 17.3 mph - N/A   Unknown
8:30 PM 78.8 °F - 71.6 °F 78% 29.59 in 6.2 mi North 19.6 mph - N/A   Unknown
9:00 PM 78 °F - 72 °F 78% 29.59 in - North 18.4 mph - -  
9:00 PM 78.8 °F - 71.6 °F 78% 29.59 in 6.2 mi North 18.4 mph - N/A   Unknown
9:30 PM 78.8 °F - 71.6 °F 78% 29.56 in 6.2 mi North 15.0 mph - N/A   Unknown
10:00 PM 78.8 °F - 71.6 °F 78% 29.56 in 6.2 mi North 13.8 mph - N/A   Unknown
10:30 PM 77.0 °F - 71.6 °F 83% 29.56 in 6.2 mi North 17.3 mph - N/A   Unknown
11:00 PM 80.6 °F 83.9 °F 69.8 °F 70% 29.53 in 6.2 mi NNW 16.1 mph - N/A   Unknown
11:30 PM 77.0 °F - 71.6 °F 83% 29.53 in 6.2 mi North 16.1 mph - N/A   Unknown